Time,TemperatureF,DewpointF,PressureIn,WindDirection,WindDirectionDegrees,WindSpeedMPH,WindSpeedGustMPH,Humidity,HourlyPrecipIn,Conditions,Clouds,dailyrainin,SoftwareType,DateUTC
2013-12-25 00:03:00,49.1,35.0,29.94,WSW,248,0.0,0.0,58,0.00,,---,0.00,VWS V14.00,2013-12-25 08:03:00,
2013-12-25 00:09:00,48.9,34.8,29.94,South,180,0.0,0.0,58,0.00,,---,0.00,VWS V14.00,2013-12-25 08:09:00,
2013-12-25 00:14:00,48.9,34.8,29.94,West,270,0.0,0.0,58,0.00,,---,0.00,VWS V14.00,2013-12-25 08:14:00,
2013-12-25 00:19:00,48.7,34.6,29.94,WSW,248,0.0,0.0,58,0.00,,---,0.00,VWS V14.00,2013-12-25 08:19:00,
2013-12-25 00:24:00,48.7,35.1,29.94,West,270,0.0,0.0,59,0.00,,---,0.00,VWS V14.00,2013-12-25 08:24:00,
2013-12-25 00:30:00,48.7,35.1,29.94,West,270,0.0,0.0,59,0.00,,---,0.00,VWS V14.00,2013-12-25 08:30:00,
2013-12-25 00:35:00,48.4,34.7,29.94,West,270,0.0,0.0,59,0.00,,---,0.00,VWS V14.00,2013-12-25 08:35:00,
2013-12-25 00:40:00,48.2,34.6,29.94,West,270,0.0,0.0,59,0.00,,---,0.00,VWS V14.00,2013-12-25 08:40:00,
2013-12-25 00:45:00,48.0,34.8,29.94,West,270,0.0,0.0,60,0.00,,---,0.00,VWS V14.00,2013-12-25 08:45:00,
2013-12-25 00:51:00,47.8,34.6,29.94,West,270,0.0,0.0,60,0.00,,---,0.00,VWS V14.00,2013-12-25 08:51:00,
2013-12-25 00:56:00,47.8,34.6,29.94,SSW,202,0.0,0.9,60,0.00,,---,0.00,VWS V14.00,2013-12-25 08:56:00,
2013-12-25 01:01:00,47.8,34.6,29.94,WNW,292,0.0,0.0,60,0.00,,---,0.00,VWS V14.00,2013-12-25 09:01:00,
2013-12-25 01:06:00,47.7,34.9,29.94,WNW,292,1.1,1.3,61,0.00,,---,0.00,VWS V14.00,2013-12-25 09:06:00,
2013-12-25 01:11:00,47.7,34.9,29.94,WNW,292,0.0,0.0,61,0.00,,---,0.00,VWS V14.00,2013-12-25 09:11:00,
2013-12-25 01:16:00,47.7,34.9,29.94,WNW,292,0.0,0.0,61,0.00,,---,0.00,VWS V14.00,2013-12-25 09:16:00,
2013-12-25 01:21:00,47.7,34.9,29.94,NW,315,1.3,1.3,61,0.00,,---,0.00,VWS V14.00,2013-12-25 09:21:00,
2013-12-25 01:27:00,47.7,34.9,29.94,SW,225,1.6,1.6,61,0.00,,---,0.00,VWS V14.00,2013-12-25 09:27:00,
2013-12-25 01:32:00,47.5,34.7,29.94,West,270,0.0,0.9,61,0.00,,---,0.00,VWS V14.00,2013-12-25 09:32:00,
2013-12-25 01:37:00,47.3,34.5,29.94,West,270,0.0,1.6,61,0.00,,---,0.00,VWS V14.00,2013-12-25 09:37:00,
2013-12-25 01:42:00,47.3,34.5,29.94,NNW,338,3.1,3.1,61,0.00,,---,0.00,VWS V14.00,2013-12-25 09:42:00,
2013-12-25 01:48:00,47.1,34.4,29.94,WNW,292,2.0,3.1,61,0.00,,---,0.00,VWS V14.00,2013-12-25 09:48:00,
2013-12-25 01:53:00,47.1,34.4,29.94,South,180,2.0,2.0,61,0.00,,---,0.00,VWS V14.00,2013-12-25 09:53:00,
2013-12-25 01:58:00,46.9,34.2,29.94,WNW,292,1.1,1.1,61,0.00,,---,0.00,VWS V14.00,2013-12-25 09:58:00,
2013-12-25 02:04:00,46.9,34.6,29.94,SSW,202,1.6,2.2,62,0.00,,---,0.00,VWS V14.00,2013-12-25 10:04:00,
2013-12-25 02:09:00,46.9,34.6,29.94,SW,225,2.5,2.5,62,0.00,,---,0.00,VWS V14.00,2013-12-25 10:09:00,
2013-12-25 02:15:00,46.9,34.6,29.94,NW,315,0.0,1.1,62,0.00,,---,0.00,VWS V14.00,2013-12-25 10:15:00,
2013-12-25 02:20:00,46.9,34.6,29.94,NW,315,0.0,2.0,62,0.00,,---,0.00,VWS V14.00,2013-12-25 10:20:00,
2013-12-25 02:25:00,46.9,34.6,29.94,NW,315,0.0,1.1,62,0.00,,---,0.00,VWS V14.00,2013-12-25 10:25:00,
2013-12-25 02:30:00,46.9,34.6,29.94,SE,135,0.0,0.0,62,0.00,,---,0.00,VWS V14.00,2013-12-25 10:30:00,
2013-12-25 02:35:00,47.1,34.8,29.94,SSW,202,1.6,1.6,62,0.00,,---,0.00,VWS V14.00,2013-12-25 10:35:00,
2013-12-25 02:40:00,47.1,34.8,29.94,ESE,112,2.2,2.9,62,0.00,,---,0.00,VWS V14.00,2013-12-25 10:40:00,
2013-12-25 02:46:00,46.9,34.6,29.94,NE,45,1.1,1.3,62,0.00,,---,0.00,VWS V14.00,2013-12-25 10:46:00,
2013-12-25 02:51:00,46.9,35.0,29.91,SSW,202,1.6,1.6,63,0.00,,---,0.00,VWS V14.00,2013-12-25 10:51:00,
2013-12-25 02:56:00,46.9,35.0,29.91,WNW,292,0.0,0.0,63,0.00,,---,0.00,VWS V14.00,2013-12-25 10:56:00,
2013-12-25 03:02:00,46.8,34.8,29.91,WNW,292,0.0,0.0,63,0.00,,---,0.00,VWS V14.00,2013-12-25 11:02:00,
2013-12-25 03:07:00,46.6,34.7,29.91,NW,315,0.0,0.0,63,0.00,,---,0.00,VWS V14.00,2013-12-25 11:07:00,
2013-12-25 03:13:00,46.6,34.7,29.91,NW,315,0.0,0.9,63,0.00,,---,0.00,VWS V14.00,2013-12-25 11:13:00,
2013-12-25 03:18:00,46.6,34.7,29.91,SW,225,0.0,0.0,63,0.00,,---,0.00,VWS V14.00,2013-12-25 11:18:00,
2013-12-25 03:23:00,46.2,34.7,29.91,NW,315,1.6,1.6,64,0.00,,---,0.00,VWS V14.00,2013-12-25 11:23:00,
2013-12-25 03:28:00,46.2,35.1,29.91,North,0,0.0,0.0,65,0.00,,---,0.00,VWS V14.00,2013-12-25 11:28:00,
2013-12-25 03:34:00,46.2,35.1,29.91,SSE,158,0.0,0.0,65,0.00,,---,0.00,VWS V14.00,2013-12-25 11:34:00,
2013-12-25 03:39:00,46.0,35.0,29.91,South,180,0.0,0.0,65,0.00,,---,0.00,VWS V14.00,2013-12-25 11:39:00,
2013-12-25 03:45:00,46.0,35.0,29.91,SSW,202,0.0,0.0,65,0.00,,---,0.00,VWS V14.00,2013-12-25 11:45:00,
2013-12-25 03:51:00,46.0,35.3,29.94,SSW,202,1.3,1.6,66,0.00,,---,0.00,VWS V14.00,2013-12-25 11:51:00,
2013-12-25 03:56:00,46.2,35.5,29.94,West,270,0.0,0.0,66,0.00,,---,0.00,VWS V14.00,2013-12-25 11:56:00,
2013-12-25 04:01:00,46.2,35.5,29.94,WNW,292,1.1,1.1,66,0.00,,---,0.00,VWS V14.00,2013-12-25 12:01:00,
2013-12-25 04:07:00,46.2,35.5,29.91,WNW,292,0.0,0.0,66,0.00,,---,0.00,VWS V14.00,2013-12-25 12:07:00,
2013-12-25 04:12:00,45.9,35.2,29.91,WNW,292,0.0,0.0,66,0.00,,---,0.00,VWS V14.00,2013-12-25 12:12:00,
2013-12-25 04:18:00,45.9,35.2,29.91,NW,315,2.7,2.7,66,0.00,,---,0.00,VWS V14.00,2013-12-25 12:18:00,
2013-12-25 04:23:00,45.5,34.8,29.91,SW,225,0.0,0.0,66,0.00,,---,0.00,VWS V14.00,2013-12-25 12:23:00,
2013-12-25 04:29:00,45.5,34.8,29.91,WNW,292,1.3,1.3,66,0.00,,---,0.00,VWS V14.00,2013-12-25 12:29:00,
2013-12-25 04:34:00,45.3,34.6,29.91,WNW,292,0.0,0.0,66,0.00,,---,0.00,VWS V14.00,2013-12-25 12:34:00,
2013-12-25 04:39:00,45.3,34.6,29.91,WSW,248,0.0,0.0,66,0.00,,---,0.00,VWS V14.00,2013-12-25 12:39:00,
2013-12-25 04:45:00,45.7,35.4,29.91,East,90,1.6,1.6,67,0.00,,---,0.00,VWS V14.00,2013-12-25 12:45:00,
2013-12-25 04:50:00,45.9,35.5,29.91,SSE,158,2.9,2.9,67,0.00,,---,0.00,VWS V14.00,2013-12-25 12:50:00,
2013-12-25 04:56:00,45.9,35.5,29.91,SW,225,0.0,1.6,67,0.00,,---,0.00,VWS V14.00,2013-12-25 12:56:00,
2013-12-25 05:01:00,45.7,35.0,29.91,North,0,0.0,0.0,66,0.00,,---,0.00,VWS V14.00,2013-12-25 13:01:00,
2013-12-25 05:06:00,45.5,34.8,29.91,SSW,202,0.0,1.1,66,0.00,,---,0.00,VWS V14.00,2013-12-25 13:06:00,
2013-12-25 05:11:00,45.3,34.6,29.91,South,180,0.0,0.0,66,0.00,,---,0.00,VWS V14.00,2013-12-25 13:11:00,
2013-12-25 05:16:00,45.3,34.6,29.91,South,180,1.1,2.7,66,0.00,,---,0.00,VWS V14.00,2013-12-25 13:16:00,
2013-12-25 05:21:00,45.5,35.2,29.91,South,180,2.0,2.2,67,0.00,,---,0.00,VWS V14.00,2013-12-25 13:21:00,
2013-12-25 05:26:00,45.5,35.2,29.91,South,180,1.3,1.6,67,0.00,,---,0.00,VWS V14.00,2013-12-25 13:26:00,
2013-12-25 05:31:00,45.5,35.2,29.91,South,180,0.0,0.0,67,0.00,,---,0.00,VWS V14.00,2013-12-25 13:31:00,
2013-12-25 05:37:00,45.5,35.2,29.91,WSW,248,0.0,0.9,67,0.00,,---,0.00,VWS V14.00,2013-12-25 13:37:00,
2013-12-25 05:42:00,45.5,35.2,29.91,West,270,0.0,1.1,67,0.00,,---,0.00,VWS V14.00,2013-12-25 13:42:00,
2013-12-25 05:48:00,45.3,35.0,29.91,WNW,292,1.3,1.6,67,0.00,,---,0.00,VWS V14.00,2013-12-25 13:48:00,
2013-12-25 05:53:00,45.3,35.0,29.91,NW,315,1.6,2.0,67,0.00,,---,0.00,VWS V14.00,2013-12-25 13:53:00,
2013-12-25 05:58:00,45.0,34.7,29.91,NW,315,2.0,2.0,67,0.00,,---,0.00,VWS V14.00,2013-12-25 13:58:00,
2013-12-25 06:03:00,44.8,34.1,29.91,WSW,248,1.3,1.3,66,0.00,,---,0.00,VWS V14.00,2013-12-25 14:03:00,
2013-12-25 06:09:00,44.8,34.5,29.91,NW,315,0.0,0.0,67,0.00,,---,0.00,VWS V14.00,2013-12-25 14:09:00,
2013-12-25 06:14:00,44.6,34.3,29.91,South,180,0.9,0.9,67,0.00,,---,0.00,VWS V14.00,2013-12-25 14:14:00,
2013-12-25 06:19:00,44.8,34.5,29.91,West,270,0.9,1.1,67,0.00,,---,0.00,VWS V14.00,2013-12-25 14:19:00,
2013-12-25 06:24:00,44.6,34.3,29.91,SSW,202,0.0,0.0,67,0.00,,---,0.00,VWS V14.00,2013-12-25 14:24:00,
2013-12-25 06:29:00,44.6,34.3,29.91,South,180,2.2,2.7,67,0.00,,---,0.00,VWS V14.00,2013-12-25 14:29:00,
2013-12-25 06:35:00,45.0,34.7,29.94,WNW,292,0.0,0.0,67,0.00,,---,0.00,VWS V14.00,2013-12-25 14:35:00,
2013-12-25 06:40:00,45.0,34.7,29.94,WNW,292,0.0,0.0,67,0.00,,---,0.00,VWS V14.00,2013-12-25 14:40:00,
2013-12-25 06:45:00,44.8,34.5,29.94,WNW,292,0.0,0.0,67,0.00,,---,0.00,VWS V14.00,2013-12-25 14:45:00,
2013-12-25 06:49:00,44.8,34.5,29.94,WNW,292,0.0,0.0,67,0.00,,---,0.00,VWS V14.00,2013-12-25 14:49:00,
2013-12-25 06:55:00,44.6,34.3,29.94,WNW,292,0.0,0.0,67,0.00,,---,0.00,VWS V14.00,2013-12-25 14:55:00,
2013-12-25 07:01:00,44.6,34.3,29.94,WNW,292,0.0,0.0,67,0.00,,---,0.00,VWS V14.00,2013-12-25 15:01:00,
2013-12-25 07:06:00,44.4,34.5,29.94,WNW,292,0.0,0.0,68,0.00,,---,0.00,VWS V14.00,2013-12-25 15:06:00,
2013-12-25 07:11:00,44.6,34.7,29.94,WNW,292,0.0,0.0,68,0.00,,---,0.00,VWS V14.00,2013-12-25 15:11:00,
2013-12-25 07:16:00,44.4,34.5,29.94,WNW,292,0.0,0.0,68,0.00,,---,0.00,VWS V14.00,2013-12-25 15:16:00,
2013-12-25 07:21:00,44.2,34.4,29.94,WNW,292,0.0,0.0,68,0.00,,---,0.00,VWS V14.00,2013-12-25 15:21:00,
2013-12-25 07:26:00,44.1,34.2,29.94,WNW,292,0.0,0.0,68,0.00,,---,0.00,VWS V14.00,2013-12-25 15:26:00,
2013-12-25 07:31:00,44.4,34.5,29.94,NW,315,0.9,1.1,68,0.00,,---,0.00,VWS V14.00,2013-12-25 15:31:00,
2013-12-25 07:37:00,44.1,34.2,29.94,NW,315,1.1,1.3,68,0.00,,---,0.00,VWS V14.00,2013-12-25 15:37:00,
2013-12-25 07:42:00,43.9,34.0,29.94,NW,315,1.1,2.2,68,0.00,,---,0.00,VWS V14.00,2013-12-25 15:42:00,
2013-12-25 07:47:00,44.1,34.2,29.94,East,90,0.0,0.0,68,0.00,,---,0.00,VWS V14.00,2013-12-25 15:47:00,
2013-12-25 07:52:00,44.1,34.2,29.94,NNW,338,1.1,1.1,68,0.00,,---,0.00,VWS V14.00,2013-12-25 15:52:00,
2013-12-25 07:58:00,44.2,34.4,29.94,NNW,338,0.0,1.3,68,0.00,,---,0.00,VWS V14.00,2013-12-25 15:58:00,
2013-12-25 08:03:00,44.2,34.4,29.94,NNW,338,0.0,0.0,68,0.00,,---,0.00,VWS V14.00,2013-12-25 16:03:00,
2013-12-25 08:08:00,44.1,34.2,29.94,NNW,338,1.3,1.3,68,0.00,,---,0.00,VWS V14.00,2013-12-25 16:08:00,
2013-12-25 08:14:00,44.2,34.4,29.94,NNW,338,2.9,2.9,68,0.00,,---,0.00,VWS V14.00,2013-12-25 16:14:00,
2013-12-25 08:20:00,44.6,34.7,29.94,NW,315,1.1,1.6,68,0.00,,---,0.00,VWS V14.00,2013-12-25 16:20:00,
2013-12-25 08:26:00,44.6,34.7,29.94,NW,315,0.0,0.9,68,0.00,,---,0.00,VWS V14.00,2013-12-25 16:26:00,
2013-12-25 08:31:00,44.8,35.2,29.94,NW,315,1.1,1.3,69,0.00,,---,0.00,VWS V14.00,2013-12-25 16:31:00,
2013-12-25 08:37:00,45.1,35.6,29.97,NW,315,1.1,1.3,69,0.00,,---,0.00,VWS V14.00,2013-12-25 16:37:00,
2013-12-25 08:41:00,45.5,36.3,29.97,NW,315,0.0,0.0,70,0.00,,---,0.00,VWS V14.00,2013-12-25 16:41:00,
2013-12-25 08:46:00,45.9,36.6,29.97,NW,315,0.0,0.0,70,0.00,,---,0.00,VWS V14.00,2013-12-25 16:46:00,
2013-12-25 08:51:00,46.0,36.8,29.97,NNE,22,0.0,0.0,70,0.00,,---,0.00,VWS V14.00,2013-12-25 16:51:00,
2013-12-25 08:56:00,46.4,37.2,29.97,NNE,22,1.1,1.1,70,0.00,,---,0.00,VWS V14.00,2013-12-25 16:56:00,
2013-12-25 09:02:00,46.9,37.7,29.97,NW,315,0.0,0.0,70,0.00,,---,0.00,VWS V14.00,2013-12-25 17:02:00,
2013-12-25 09:07:00,47.3,38.0,29.97,NW,315,1.3,1.6,70,0.00,,---,0.00,VWS V14.00,2013-12-25 17:07:00,
2013-12-25 09:12:00,47.3,38.0,29.97,NW,315,0.0,0.0,70,0.00,,---,0.00,VWS V14.00,2013-12-25 17:12:00,
2013-12-25 09:18:00,48.6,39.2,29.97,NNE,22,2.0,2.0,70,0.00,,---,0.00,VWS V14.00,2013-12-25 17:18:00,
2013-12-25 09:24:00,49.3,39.9,29.97,NNW,338,0.9,0.9,70,0.00,,---,0.00,VWS V14.00,2013-12-25 17:24:00,
2013-12-25 09:29:00,50.0,40.6,29.97,NNW,338,0.0,0.0,70,0.00,,---,0.00,VWS V14.00,2013-12-25 17:29:00,
2013-12-25 09:34:00,50.2,40.4,30.00,NW,315,1.6,1.6,69,0.00,,---,0.00,VWS V14.00,2013-12-25 17:34:00,
2013-12-25 09:40:00,50.9,41.1,30.00,NNE,22,0.0,0.0,69,0.00,,---,0.00,VWS V14.00,2013-12-25 17:40:00,
2013-12-25 09:45:00,50.9,41.1,30.00,NE,45,0.0,0.0,69,0.00,,---,0.00,VWS V14.00,2013-12-25 17:45:00,
2013-12-25 09:51:00,52.2,41.9,30.00,ENE,68,2.2,2.2,68,0.00,,---,0.00,VWS V14.00,2013-12-25 17:51:00,
2013-12-25 09:56:00,52.2,41.9,30.00,East,90,1.6,2.7,68,0.00,,---,0.00,VWS V14.00,2013-12-25 17:56:00,
2013-12-25 10:01:00,53.1,42.4,30.00,NNE,22,2.0,2.0,67,0.00,,---,0.00,VWS V14.00,2013-12-25 18:01:00,
2013-12-25 10:06:00,53.4,42.4,30.03,West,270,0.9,2.0,66,0.00,,---,0.00,VWS V14.00,2013-12-25 18:06:00,
2013-12-25 10:11:00,54.0,42.5,30.03,ENE,68,2.0,2.0,65,0.00,,---,0.00,VWS V14.00,2013-12-25 18:11:00,
2013-12-25 10:16:00,54.5,43.0,30.03,NE,45,2.9,2.9,65,0.00,,---,0.00,VWS V14.00,2013-12-25 18:16:00,
2013-12-25 10:21:00,54.9,42.9,30.00,ESE,112,1.1,1.6,64,0.00,,---,0.00,VWS V14.00,2013-12-25 18:21:00,
2013-12-25 10:26:00,55.2,42.9,30.00,SSE,158,1.3,2.2,63,0.00,,---,0.00,VWS V14.00,2013-12-25 18:26:00,
2013-12-25 10:31:00,55.9,43.1,30.00,SE,135,2.2,2.2,62,0.00,,---,0.00,VWS V14.00,2013-12-25 18:31:00,
2013-12-25 10:36:00,56.3,43.0,30.00,ESE,112,1.6,2.0,61,0.00,,---,0.00,VWS V14.00,2013-12-25 18:36:00,
2013-12-25 10:42:00,56.3,43.0,30.00,NW,315,0.0,0.0,61,0.00,,---,0.00,VWS V14.00,2013-12-25 18:42:00,
2013-12-25 10:47:00,57.4,43.6,30.00,NW,315,0.9,1.3,60,0.00,,---,0.00,VWS V14.00,2013-12-25 18:47:00,
2013-12-25 10:52:00,57.6,43.4,30.00,NNW,338,1.1,1.1,59,0.00,,---,0.00,VWS V14.00,2013-12-25 18:52:00,
2013-12-25 10:57:00,58.5,43.8,30.00,East,90,1.6,1.6,58,0.00,,---,0.00,VWS V14.00,2013-12-25 18:57:00,
2013-12-25 11:03:00,58.8,44.1,30.00,West,270,0.0,0.0,58,0.00,,---,0.00,VWS V14.00,2013-12-25 19:03:00,
2013-12-25 11:08:00,59.4,44.1,30.00,SW,225,1.1,1.3,57,0.00,,---,0.00,VWS V14.00,2013-12-25 19:08:00,
2013-12-25 11:13:00,60.4,44.7,30.00,NW,315,1.3,1.6,56,0.00,,---,0.00,VWS V14.00,2013-12-25 19:13:00,
2013-12-25 11:18:00,61.2,44.9,30.00,NE,45,3.4,3.4,55,0.00,,---,0.00,VWS V14.00,2013-12-25 19:18:00,
2013-12-25 11:23:00,62.6,45.2,30.00,SSE,158,1.3,2.7,53,0.00,,---,0.00,VWS V14.00,2013-12-25 19:23:00,
2013-12-25 11:29:00,63.1,45.2,30.00,SE,135,2.5,2.5,52,0.00,,---,0.00,VWS V14.00,2013-12-25 19:29:00,
2013-12-25 11:34:00,64.4,45.9,30.00,North,0,0.9,0.9,51,0.00,,---,0.00,VWS V14.00,2013-12-25 19:34:00,
2013-12-25 11:39:00,65.1,46.0,30.00,WNW,292,1.3,2.2,50,0.00,,---,0.00,VWS V14.00,2013-12-25 19:39:00,
2013-12-25 11:45:00,65.8,46.7,30.00,NE,45,2.0,2.0,50,0.00,,---,0.00,VWS V14.00,2013-12-25 19:45:00,
2013-12-25 11:46:00,65.8,46.7,30.00,West,270,1.1,2.0,50,0.00,,---,0.00,VWS V14.00,2013-12-25 19:46:00,
2013-12-25 11:51:00,67.3,46.9,29.97,ESE,112,2.2,2.2,48,0.00,,---,0.00,VWS V14.00,2013-12-25 19:51:00,
2013-12-25 11:56:00,67.6,46.7,29.97,North,0,1.6,1.6,47,0.00,,---,0.00,VWS V14.00,2013-12-25 19:56:00,
2013-12-25 12:02:00,68.5,47.0,29.97,SSE,158,2.2,3.1,46,0.00,,---,0.00,VWS V14.00,2013-12-25 20:02:00,
2013-12-25 12:06:00,68.9,46.7,29.97,East,90,3.4,3.4,45,0.00,,---,0.00,VWS V14.00,2013-12-25 20:06:00,
2013-12-25 12:11:00,69.6,46.8,29.97,SSW,202,1.3,2.5,44,0.00,,---,0.00,VWS V14.00,2013-12-25 20:11:00,
2013-12-25 12:16:00,69.6,46.8,29.97,ESE,112,2.0,2.0,44,0.00,,---,0.00,VWS V14.00,2013-12-25 20:16:00,
2013-12-25 12:22:00,70.3,46.8,29.97,ESE,112,2.5,2.5,43,0.00,,---,0.00,VWS V14.00,2013-12-25 20:22:00,
2013-12-25 12:27:00,70.9,46.7,29.97,NNE,22,0.0,2.7,42,0.00,,---,0.00,VWS V14.00,2013-12-25 20:27:00,
2013-12-25 12:32:00,71.2,47.0,29.97,ENE,68,2.9,2.9,42,0.00,,---,0.00,VWS V14.00,2013-12-25 20:32:00,
2013-12-25 12:37:00,71.8,46.8,29.94,South,180,2.7,2.7,41,0.00,,---,0.00,VWS V14.00,2013-12-25 20:37:00,
2013-12-25 12:42:00,72.0,46.3,29.94,SW,225,2.5,2.5,40,0.00,,---,0.00,VWS V14.00,2013-12-25 20:42:00,
2013-12-25 12:48:00,72.1,45.8,29.94,NNW,338,1.3,1.3,39,0.00,,---,0.00,VWS V14.00,2013-12-25 20:48:00,
2013-12-25 12:53:00,72.5,46.2,29.94,NNE,22,2.5,2.5,39,0.00,,---,0.00,VWS V14.00,2013-12-25 20:53:00,
2013-12-25 12:58:00,72.7,45.6,29.94,NNW,338,1.3,2.0,38,0.00,,---,0.00,VWS V14.00,2013-12-25 20:58:00,
2013-12-25 13:03:00,73.0,46.0,29.94,NE,45,1.3,1.3,38,0.00,,---,0.00,VWS V14.00,2013-12-25 21:03:00,
2013-12-25 13:09:00,73.0,46.0,29.94,SSE,158,2.5,2.5,38,0.00,,---,0.00,VWS V14.00,2013-12-25 21:09:00,
2013-12-25 13:15:00,73.6,45.7,29.94,NNW,338,0.0,1.3,37,0.00,,---,0.00,VWS V14.00,2013-12-25 21:15:00,
2013-12-25 13:20:00,73.8,45.2,29.94,South,180,4.3,4.3,36,0.00,,---,0.00,VWS V14.00,2013-12-25 21:20:00,
2013-12-25 13:25:00,73.6,45.0,29.94,SW,225,0.0,2.0,36,0.00,,---,0.00,VWS V14.00,2013-12-25 21:25:00,
2013-12-25 13:30:00,73.8,45.2,29.94,ESE,112,2.7,2.7,36,0.00,,---,0.00,VWS V14.00,2013-12-25 21:30:00,
2013-12-25 13:35:00,73.8,45.2,29.91,ESE,112,2.7,2.7,36,0.00,,---,0.00,VWS V14.00,2013-12-25 21:35:00,
2013-12-25 13:40:00,73.8,44.4,29.91,SSE,158,0.9,0.9,35,0.00,,---,0.00,VWS V14.00,2013-12-25 21:40:00,
2013-12-25 13:46:00,73.8,44.4,29.91,SSE,158,3.1,4.0,35,0.00,,---,0.00,VWS V14.00,2013-12-25 21:46:00,
2013-12-25 13:51:00,73.6,44.3,29.91,WSW,248,1.3,1.3,35,0.00,,---,0.00,VWS V14.00,2013-12-25 21:51:00,
2013-12-25 13:55:00,73.4,44.1,29.91,SSW,202,1.3,1.3,35,0.00,,---,0.00,VWS V14.00,2013-12-25 21:55:00,
2013-12-25 14:00:00,73.6,44.3,29.91,SE,135,2.0,2.0,35,0.00,,---,0.00,VWS V14.00,2013-12-25 22:00:00,
2013-12-25 14:05:00,73.8,44.4,29.91,ESE,112,2.7,2.7,35,0.00,,---,0.00,VWS V14.00,2013-12-25 22:05:00,
2013-12-25 14:11:00,73.6,44.3,29.91,SSE,158,1.6,1.6,35,0.00,,---,0.00,VWS V14.00,2013-12-25 22:11:00,
2013-12-25 14:17:00,73.0,43.8,29.91,ESE,112,2.7,2.7,35,0.00,,---,0.00,VWS V14.00,2013-12-25 22:17:00,
2013-12-25 14:22:00,72.5,42.6,29.91,ESE,112,2.5,2.5,34,0.00,,---,0.00,VWS V14.00,2013-12-25 22:22:00,
2013-12-25 14:28:00,71.6,41.8,29.91,South,180,2.5,3.1,34,0.00,,---,0.00,VWS V14.00,2013-12-25 22:28:00,
2013-12-25 14:33:00,71.6,42.5,29.91,South,180,1.1,1.1,35,0.00,,---,0.00,VWS V14.00,2013-12-25 22:33:00,
2013-12-25 14:38:00,71.6,42.5,29.91,ENE,68,2.0,2.5,35,0.00,,---,0.00,VWS V14.00,2013-12-25 22:38:00,
2013-12-25 14:43:00,71.4,42.4,29.91,SSW,202,1.3,2.2,35,0.00,,---,0.00,VWS V14.00,2013-12-25 22:43:00,
2013-12-25 14:48:00,71.4,42.4,29.91,NW,315,0.0,0.0,35,0.00,,---,0.00,VWS V14.00,2013-12-25 22:48:00,
2013-12-25 14:53:00,71.4,42.4,29.91,NW,315,1.6,1.6,35,0.00,,---,0.00,VWS V14.00,2013-12-25 22:53:00,
2013-12-25 14:59:00,70.7,41.7,29.91,West,270,0.0,1.1,35,0.00,,---,0.00,VWS V14.00,2013-12-25 22:59:00,
2013-12-25 15:04:00,70.5,41.6,29.91,SSE,158,1.1,1.1,35,0.00,,---,0.00,VWS V14.00,2013-12-25 23:04:00,
2013-12-25 15:09:00,70.2,41.3,29.91,SSE,158,1.6,1.6,35,0.00,,---,0.00,VWS V14.00,2013-12-25 23:09:00,
2013-12-25 15:14:00,70.0,41.1,29.91,SE,135,0.0,0.0,35,0.00,,---,0.00,VWS V14.00,2013-12-25 23:14:00,
2013-12-25 15:19:00,69.6,41.5,29.91,NNW,338,0.9,0.9,36,0.00,,---,0.00,VWS V14.00,2013-12-25 23:19:00,
2013-12-25 15:24:00,68.7,42.1,29.91,NW,315,0.9,1.6,38,0.00,,---,0.00,VWS V14.00,2013-12-25 23:24:00,
2013-12-25 15:30:00,68.5,42.0,29.91,SE,135,2.0,2.0,38,0.00,,---,0.00,VWS V14.00,2013-12-25 23:30:00,
2013-12-25 15:34:00,68.0,40.8,29.88,West,270,1.1,2.5,37,0.00,,---,0.00,VWS V14.00,2013-12-25 23:34:00,
2013-12-25 15:40:00,67.6,41.2,29.88,West,270,0.9,1.1,38,0.00,,---,0.00,VWS V14.00,2013-12-25 23:40:00,
2013-12-25 15:45:00,66.9,40.5,29.88,WNW,292,0.0,0.0,38,0.00,,---,0.00,VWS V14.00,2013-12-25 23:45:00,
2013-12-25 15:49:00,66.6,40.2,29.91,West,270,0.0,0.0,38,0.00,,---,0.00,VWS V14.00,2013-12-25 23:49:00,
2013-12-25 15:54:00,66.0,40.4,29.91,South,180,0.0,0.0,39,0.00,,---,0.00,VWS V14.00,2013-12-25 23:54:00,
2013-12-25 15:59:00,65.8,40.2,29.91,West,270,0.0,0.0,39,0.00,,---,0.00,VWS V14.00,2013-12-25 23:59:00,
2013-12-25 16:04:00,65.8,40.2,29.91,West,270,0.0,0.0,39,0.00,,---,0.00,VWS V14.00,2013-12-26 00:04:00,
2013-12-25 16:10:00,64.6,41.0,29.91,West,270,0.9,0.9,42,0.00,,---,0.00,VWS V14.00,2013-12-26 00:10:00,
2013-12-25 16:14:00,63.9,40.3,29.91,West,270,1.3,1.3,42,0.00,,---,0.00,VWS V14.00,2013-12-26 00:14:00,
2013-12-25 16:19:00,63.1,40.3,29.91,West,270,0.9,1.6,43,0.00,,---,0.00,VWS V14.00,2013-12-26 00:19:00,
2013-12-25 16:24:00,63.0,40.7,29.91,West,270,1.6,1.6,44,0.00,,---,0.00,VWS V14.00,2013-12-26 00:24:00,
2013-12-25 16:29:00,62.4,40.2,29.91,West,270,0.9,1.1,44,0.00,,---,0.00,VWS V14.00,2013-12-26 00:29:00,
2013-12-25 16:35:00,62.1,39.9,29.91,West,270,0.9,0.9,44,0.00,,---,0.00,VWS V14.00,2013-12-26 00:35:00,
2013-12-25 16:41:00,61.5,39.4,29.91,SW,225,0.0,0.0,44,0.00,,---,0.00,VWS V14.00,2013-12-26 00:41:00,
2013-12-25 16:45:00,61.2,39.7,29.91,West,270,0.0,0.0,45,0.00,,---,0.00,VWS V14.00,2013-12-26 00:45:00,
2013-12-25 16:51:00,60.6,39.2,29.91,West,270,0.0,0.0,45,0.00,,---,0.00,VWS V14.00,2013-12-26 00:51:00,
2013-12-25 16:56:00,59.7,38.4,29.91,West,270,0.0,0.0,45,0.00,,---,0.00,VWS V14.00,2013-12-26 00:56:00,
2013-12-25 17:02:00,59.4,38.6,29.91,South,180,0.0,0.0,46,0.00,,---,0.00,VWS V14.00,2013-12-26 01:02:00,
2013-12-25 17:06:00,59.0,38.3,29.91,WSW,248,0.0,0.0,46,0.00,,---,0.00,VWS V14.00,2013-12-26 01:06:00,
2013-12-25 17:12:00,58.8,38.1,29.91,WNW,292,1.3,1.3,46,0.00,,---,0.00,VWS V14.00,2013-12-26 01:12:00,
2013-12-25 17:18:00,58.8,38.1,29.91,NNW,338,1.3,2.0,46,0.00,,---,0.00,VWS V14.00,2013-12-26 01:18:00,
2013-12-25 17:23:00,58.8,38.1,29.91,NW,315,1.1,1.6,46,0.00,,---,0.00,VWS V14.00,2013-12-26 01:23:00,
2013-12-25 17:28:00,57.2,37.2,29.91,NW,315,0.0,0.0,47,0.00,,---,0.00,VWS V14.00,2013-12-26 01:28:00,
2013-12-25 17:33:00,57.0,37.5,29.91,NW,315,1.3,2.2,48,0.00,,---,0.00,VWS V14.00,2013-12-26 01:33:00,
2013-12-25 17:38:00,56.3,36.9,29.91,NNW,338,0.0,0.0,48,0.00,,---,0.00,VWS V14.00,2013-12-26 01:38:00,
2013-12-25 17:44:00,55.9,37.1,29.91,SSW,202,1.6,1.6,49,0.00,,---,0.00,VWS V14.00,2013-12-26 01:44:00,
2013-12-25 17:49:00,55.9,37.1,29.91,SSW,202,2.2,2.2,49,0.00,,---,0.00,VWS V14.00,2013-12-26 01:49:00,
2013-12-25 17:54:00,55.8,36.9,29.91,West,270,0.0,0.0,49,0.00,,---,0.00,VWS V14.00,2013-12-26 01:54:00,
2013-12-25 18:00:00,55.6,37.2,29.91,NNW,338,1.6,1.6,50,0.00,,---,0.00,VWS V14.00,2013-12-26 02:00:00,
2013-12-25 18:05:00,55.2,36.9,29.91,NW,315,0.0,0.0,50,0.00,,---,0.00,VWS V14.00,2013-12-26 02:05:00,
2013-12-25 18:10:00,54.9,36.6,29.91,NNW,338,2.0,2.0,50,0.00,,---,0.00,VWS V14.00,2013-12-26 02:10:00,
2013-12-25 18:15:00,54.7,36.9,29.91,WNW,292,2.7,2.7,51,0.00,,---,0.00,VWS V14.00,2013-12-26 02:15:00,
2013-12-25 18:20:00,54.5,36.8,29.91,NNW,338,0.0,0.0,51,0.00,,---,0.00,VWS V14.00,2013-12-26 02:20:00,
2013-12-25 18:26:00,54.5,36.8,29.91,NW,315,0.0,0.0,51,0.00,,---,0.00,VWS V14.00,2013-12-26 02:26:00,
2013-12-25 18:31:00,54.5,36.8,29.91,WNW,292,1.1,1.1,51,0.00,,---,0.00,VWS V14.00,2013-12-26 02:31:00,
2013-12-25 18:37:00,53.8,36.1,29.91,WNW,292,0.0,0.0,51,0.00,,---,0.00,VWS V14.00,2013-12-26 02:37:00,
2013-12-25 18:42:00,53.6,36.4,29.91,WNW,292,1.1,1.1,52,0.00,,---,0.00,VWS V14.00,2013-12-26 02:42:00,
2013-12-25 18:47:00,53.2,36.1,29.91,WNW,292,0.0,0.0,52,0.00,,---,0.00,VWS V14.00,2013-12-26 02:47:00,
2013-12-25 18:52:00,53.2,36.1,29.91,WNW,292,0.0,0.0,52,0.00,,---,0.00,VWS V14.00,2013-12-26 02:52:00,
2013-12-25 18:58:00,52.9,36.2,29.91,WNW,292,0.0,0.9,53,0.00,,---,0.00,VWS V14.00,2013-12-26 02:58:00,
2013-12-25 19:03:00,52.7,36.1,29.91,NW,315,1.3,1.3,53,0.00,,---,0.00,VWS V14.00,2013-12-26 03:03:00,
2013-12-25 19:09:00,52.5,35.9,29.91,NW,315,0.0,0.0,53,0.00,,---,0.00,VWS V14.00,2013-12-26 03:09:00,
2013-12-25 19:15:00,52.5,36.4,29.91,NW,315,1.6,2.5,54,0.00,,---,0.00,VWS V14.00,2013-12-26 03:15:00,
2013-12-25 19:20:00,52.3,36.2,29.91,NNW,338,1.1,1.6,54,0.00,,---,0.00,VWS V14.00,2013-12-26 03:20:00,
2013-12-25 19:25:00,52.2,36.0,29.91,NW,315,1.3,1.6,54,0.00,,---,0.00,VWS V14.00,2013-12-26 03:25:00,
2013-12-25 19:31:00,52.0,35.9,29.91,NW,315,1.6,2.2,54,0.00,,---,0.00,VWS V14.00,2013-12-26 03:31:00,
2013-12-25 19:36:00,51.8,35.7,29.91,NNW,338,0.0,0.0,54,0.00,,---,0.00,VWS V14.00,2013-12-26 03:36:00,
2013-12-25 19:41:00,51.6,36.0,29.91,NNW,338,2.0,2.0,55,0.00,,---,0.00,VWS V14.00,2013-12-26 03:41:00,
2013-12-25 19:46:00,51.4,35.8,29.91,NNW,338,1.1,1.6,55,0.00,,---,0.00,VWS V14.00,2013-12-26 03:46:00,
2013-12-25 19:51:00,51.4,35.8,29.91,NW,315,1.3,1.3,55,0.00,,---,0.00,VWS V14.00,2013-12-26 03:51:00,
2013-12-25 19:56:00,51.1,35.5,29.91,NW,315,1.6,1.6,55,0.00,,---,0.00,VWS V14.00,2013-12-26 03:56:00,
2013-12-25 20:01:00,51.1,35.5,29.91,NW,315,1.3,1.3,55,0.00,,---,0.00,VWS V14.00,2013-12-26 04:01:00,
2013-12-25 20:06:00,50.7,35.6,29.91,NW,315,1.6,1.6,56,0.00,,---,0.00,VWS V14.00,2013-12-26 04:06:00,
2013-12-25 20:11:00,50.5,35.4,29.91,NW,315,1.3,2.0,56,0.00,,---,0.00,VWS V14.00,2013-12-26 04:11:00,
2013-12-25 20:17:00,50.4,35.3,29.91,NNW,338,1.3,1.3,56,0.00,,---,0.00,VWS V14.00,2013-12-26 04:17:00,
2013-12-25 20:22:00,50.4,35.7,29.94,NW,315,1.6,1.6,57,0.00,,---,0.00,VWS V14.00,2013-12-26 04:22:00,
2013-12-25 20:28:00,50.4,35.7,29.94,NW,315,1.3,2.0,57,0.00,,---,0.00,VWS V14.00,2013-12-26 04:28:00,
2013-12-25 20:33:00,50.2,35.5,29.94,NNW,338,0.0,1.3,57,0.00,,---,0.00,VWS V14.00,2013-12-26 04:33:00,
2013-12-25 20:39:00,50.2,35.5,29.94,NNW,338,0.0,0.0,57,0.00,,---,0.00,VWS V14.00,2013-12-26 04:39:00,
2013-12-25 20:44:00,50.0,35.8,29.94,NNW,338,0.0,0.0,58,0.00,,---,0.00,VWS V14.00,2013-12-26 04:44:00,
2013-12-25 20:48:00,50.0,35.8,29.94,NNW,338,1.3,1.3,58,0.00,,---,0.00,VWS V14.00,2013-12-26 04:48:00,
2013-12-25 20:54:00,50.0,35.8,29.94,NNW,338,0.0,0.0,58,0.00,,---,0.00,VWS V14.00,2013-12-26 04:54:00,
2013-12-25 20:59:00,50.0,35.8,29.94,NNW,338,0.0,0.0,58,0.00,,---,0.00,VWS V14.00,2013-12-26 04:59:00,
2013-12-25 21:02:00,49.8,35.7,29.94,NW,315,1.6,1.6,58,0.00,,---,0.00,VWS V14.00,2013-12-26 05:02:00,
2013-12-25 21:03:00,49.8,35.7,29.94,NW,315,2.9,2.9,58,0.00,,---,0.00,VWS V14.00,2013-12-26 05:03:00,
2013-12-25 21:04:00,49.8,35.7,29.94,NNW,338,2.0,2.9,58,0.00,,---,0.00,VWS V14.00,2013-12-26 05:04:00,
2013-12-25 21:07:00,49.8,36.1,29.94,NNW,338,0.0,0.0,59,0.00,,---,0.00,VWS V14.00,2013-12-26 05:07:00,
2013-12-25 21:08:00,49.8,35.7,29.94,NNW,338,0.0,0.0,58,0.00,,---,0.00,VWS V14.00,2013-12-26 05:08:00,
2013-12-25 21:09:00,49.8,35.7,29.94,NNW,338,0.0,0.0,58,0.00,,---,0.00,VWS V14.00,2013-12-26 05:09:00,
2013-12-25 21:14:00,49.6,35.9,29.94,West,270,0.0,0.0,59,0.00,,---,0.00,VWS V14.00,2013-12-26 05:14:00,
2013-12-25 21:19:00,49.6,35.9,29.91,NW,315,0.0,1.3,59,0.00,,---,0.00,VWS V14.00,2013-12-26 05:19:00,
2013-12-25 21:24:00,49.5,35.7,29.91,West,270,0.0,0.0,59,0.00,,---,0.00,VWS V14.00,2013-12-26 05:24:00,
2013-12-25 21:30:00,49.5,35.7,29.91,NW,315,2.0,2.0,59,0.00,,---,0.00,VWS V14.00,2013-12-26 05:30:00,
2013-12-25 21:35:00,49.5,35.7,29.94,SSW,202,1.3,1.3,59,0.00,,---,0.00,VWS V14.00,2013-12-26 05:35:00,
2013-12-25 21:40:00,49.5,35.7,29.94,South,180,0.0,0.0,59,0.00,,---,0.00,VWS V14.00,2013-12-26 05:40:00,
2013-12-25 21:45:00,49.5,35.7,29.94,WSW,248,0.0,0.0,59,0.00,,---,0.00,VWS V14.00,2013-12-26 05:45:00,
2013-12-25 21:50:00,49.5,35.7,29.94,WNW,292,1.6,2.0,59,0.00,,---,0.00,VWS V14.00,2013-12-26 05:50:00,
2013-12-25 21:54:00,49.3,36.0,29.94,NW,315,1.3,1.3,60,0.00,,---,0.00,VWS V14.00,2013-12-26 05:54:00,
2013-12-25 22:00:00,49.1,35.8,29.94,NW,315,2.0,2.0,60,0.00,,---,0.00,VWS V14.00,2013-12-26 06:00:00,
2013-12-25 22:05:00,48.9,35.7,29.94,WNW,292,2.0,2.0,60,0.00,,---,0.00,VWS V14.00,2013-12-26 06:05:00,
2013-12-25 22:11:00,48.9,35.7,29.94,NW,315,2.7,3.1,60,0.00,,---,0.00,VWS V14.00,2013-12-26 06:11:00,
2013-12-25 22:16:00,48.7,35.5,29.94,NNW,338,0.9,0.9,60,0.00,,---,0.00,VWS V14.00,2013-12-26 06:16:00,
2013-12-25 22:21:00,48.6,35.3,29.94,NNW,338,0.0,0.0,60,0.00,,---,0.00,VWS V14.00,2013-12-26 06:21:00,
2013-12-25 22:27:00,48.6,35.3,29.94,NW,315,0.0,0.0,60,0.00,,---,0.00,VWS V14.00,2013-12-26 06:27:00,
2013-12-25 22:32:00,48.6,35.7,29.94,NW,315,0.0,0.0,61,0.00,,---,0.00,VWS V14.00,2013-12-26 06:32:00,
2013-12-25 22:37:00,48.4,35.6,29.94,West,270,0.0,0.0,61,0.00,,---,0.00,VWS V14.00,2013-12-26 06:37:00,
2013-12-25 22:42:00,48.2,35.4,29.94,WNW,292,0.0,1.1,61,0.00,,---,0.00,VWS V14.00,2013-12-26 06:42:00,
2013-12-25 22:47:00,48.2,35.4,29.94,SW,225,0.0,0.0,61,0.00,,---,0.00,VWS V14.00,2013-12-26 06:47:00,
2013-12-25 22:53:00,48.4,36.0,29.94,NNW,338,0.0,0.0,62,0.00,,---,0.00,VWS V14.00,2013-12-26 06:53:00,
2013-12-25 22:59:00,48.4,36.0,29.94,NW,315,0.0,0.0,62,0.00,,---,0.00,VWS V14.00,2013-12-26 06:59:00,
2013-12-25 23:04:00,48.4,36.0,29.94,NW,315,1.1,1.1,62,0.00,,---,0.00,VWS V14.00,2013-12-26 07:04:00,
2013-12-25 23:09:00,48.2,35.8,29.94,NW,315,0.0,0.0,62,0.00,,---,0.00,VWS V14.00,2013-12-26 07:09:00,
2013-12-25 23:15:00,47.8,35.5,29.94,NW,315,0.0,0.0,62,0.00,,---,0.00,VWS V14.00,2013-12-26 07:15:00,
2013-12-25 23:20:00,47.8,35.9,29.94,NNW,338,1.3,1.3,63,0.00,,---,0.00,VWS V14.00,2013-12-26 07:20:00,
2013-12-25 23:25:00,47.8,35.9,29.94,NNW,338,2.0,2.0,63,0.00,,---,0.00,VWS V14.00,2013-12-26 07:25:00,
2013-12-25 23:30:00,47.7,35.7,29.94,NW,315,0.9,1.3,63,0.00,,---,0.00,VWS V14.00,2013-12-26 07:30:00,
2013-12-25 23:36:00,47.5,35.5,29.94,SSW,202,1.6,2.0,63,0.00,,---,0.00,VWS V14.00,2013-12-26 07:36:00,
2013-12-25 23:41:00,47.5,35.5,29.94,SSE,158,1.6,1.6,63,0.00,,---,0.00,VWS V14.00,2013-12-26 07:41:00,
2013-12-25 23:46:00,48.2,36.2,29.94,WSW,248,0.0,1.6,63,0.00,,---,0.00,VWS V14.00,2013-12-26 07:46:00,
2013-12-25 23:52:00,48.2,36.2,29.94,South,180,2.0,2.5,63,0.00,,---,0.00,VWS V14.00,2013-12-26 07:52:00,
2013-12-25 23:57:00,48.4,36.4,29.94,South,180,2.0,2.0,63,0.00,,---,0.00,VWS V14.00,2013-12-26 07:57:00,